TimeEDT,TemperatureF,Dew PointF,Humidity,Sea Level PressureIn,VisibilityMPH,Wind Direction,Wind SpeedMPH,Gust SpeedMPH,PrecipitationIn,Events,Conditions,WindDirDegrees,DateUTC
12:00 AM,23.0,14.0,68,30.02,25.0,SW,2.3,-,N/A,,Clear,230,2014-03-22 04:00:00
1:00 AM,23.0,14.0,68,30.03,25.0,WSW,2.3,-,N/A,,Partly Cloudy,250,2014-03-22 05:00:00
2:00 AM,21.2,14.0,74,30.01,25.0,Calm,Calm,-,N/A,,Partly Cloudy,0,2014-03-22 06:00:00
3:00 AM,19.4,14.0,80,29.97,25.0,NE,3.5,-,N/A,,Mostly Cloudy,40,2014-03-22 07:00:00
4:00 AM,19.4,14.0,80,29.93,25.0,NNE,2.3,-,N/A,,Overcast,30,2014-03-22 08:00:00
5:00 AM,19.4,14.0,80,29.90,25.0,NNE,6.9,-,N/A,,Overcast,20,2014-03-22 09:00:00
6:00 AM,19.4,14.0,80,29.88,25.0,NNE,3.5,-,N/A,,Overcast,30,2014-03-22 10:00:00
7:00 AM,21.2,15.8,80,29.84,25.0,NE,4.6,-,N/A,,Overcast,50,2014-03-22 11:00:00
8:00 AM,21.2,15.8,80,29.81,25.0,NE,5.8,-,N/A,,Overcast,40,2014-03-22 12:00:00
8:06 AM,21.2,15.8,80,29.80,15.0,NE,6.9,-,N/A,Snow,Light Snow,40,2014-03-22 12:06:00
8:32 AM,23.0,17.6,80,29.76,3.0,NE,6.9,-,N/A,Snow,Light Snow,50,2014-03-22 12:32:00
8:39 AM,23.0,17.6,80,29.76,1.0,NE,6.9,-,N/A,Snow,Light Snow,40,2014-03-22 12:39:00
9:00 AM,23.0,19.4,86,29.74,1.5,NE,6.9,-,N/A,Snow,Light Snow,50,2014-03-22 13:00:00
9:32 AM,23.0,21.2,93,29.73,0.8,NE,9.2,-,N/A,Snow,Light Snow,50,2014-03-22 13:32:00
10:00 AM,23.0,21.2,93,29.73,0.5,ENE,11.5,18.4,N/A,Snow,Snow,60,2014-03-22 14:00:00
11:00 AM,23.0,21.2,93,29.67,0.1,NE,8.1,-,N/A,Snow,Snow,40,2014-03-22 15:00:00
12:00 PM,24.8,21.2,86,29.65,0.5,NE,9.2,-,N/A,Snow,Snow,50,2014-03-22 16:00:00
1:00 PM,26.6,23.0,86,29.65,0.8,North,10.4,-,N/A,Snow,Light Snow,10,2014-03-22 17:00:00
1:22 PM,26.6,23.0,86,29.67,2.0,NNE,10.4,-,N/A,Snow,Light Snow,20,2014-03-22 17:22:00
2:00 PM,28.4,23.0,80,29.70,4.0,North,9.2,-,N/A,Snow,Light Snow,360,2014-03-22 18:00:00
3:00 PM,32.0,23.0,69,29.74,10.0,NW,6.9,-,N/A,Snow,Light Snow,310,2014-03-22 19:00:00
4:00 PM,33.8,24.8,70,29.77,25.0,WSW,9.2,-,N/A,,Overcast,240,2014-03-22 20:00:00
5:00 PM,32.0,24.8,75,29.82,25.0,WSW,8.1,23.0,N/A,,Overcast,250,2014-03-22 21:00:00
6:00 PM,32.0,24.8,75,29.85,15.0,WSW,11.5,19.6,N/A,,Overcast,250,2014-03-22 22:00:00
7:00 PM,32.0,24.8,75,29.86,20.0,WSW,8.1,-,N/A,,Mostly Cloudy,250,2014-03-22 23:00:00
8:00 PM,30.2,23.0,75,29.87,25.0,WSW,5.8,-,N/A,,Mostly Cloudy,240,2014-03-23 00:00:00
9:00 PM,30.2,24.8,80,29.88,25.0,SW,6.9,-,N/A,,Mostly Cloudy,220,2014-03-23 01:00:00
10:00 PM,28.4,23.0,80,29.88,25.0,WSW,5.8,-,N/A,,Mostly Cloudy,240,2014-03-23 02:00:00
11:00 PM,28.4,24.8,86,29.87,25.0,WSW,8.1,-,N/A,,Mostly Cloudy,240,2014-03-23 03:00:00
11:26 PM,28.4,26.6,93,29.86,4.0,WSW,5.8,-,N/A,Snow,Light Snow Showers,240,2014-03-23 03:26:00
11:35 PM,28.4,26.6,93,29.86,1.0,WSW,6.9,-,N/A,Snow,Light Snow Showers,240,2014-03-23 03:35:00
11:39 PM,30.2,26.6,86,29.86,0.5,WSW,6.9,-,N/A,Snow,Snow Showers,240,2014-03-23 03:39:00
11:47 PM,30.2,26.6,86,29.86,1.0,SW,6.9,-,N/A,Snow,Light Snow Showers,230,2014-03-23 03:47:00